{"data":{"norad_id":68343,"epoch":"2026-05-25T00:13:10.553088Z","epoch_age_seconds":70262,"freshness":"FRESH","line1":"1 68343U 26059Y   26145.00914992  .00036897  00000+0  10975-2 0  9994","line2":"2 68343  53.1594 349.9799 0001063  74.4171 285.6948 15.34407660  9914","mean_motion":15.3440766,"eccentricity":0.0001063,"inclination_deg":53.1594,"raan_deg":349.9799,"arg_perigee_deg":74.4171,"mean_anomaly_deg":285.6948,"bstar":0.0010975,"rev_number":991,"period_min":93.847289578833,"perigee_km":461.95329427015,"apogee_km":463.40765206495,"semimajor_km":6840.8174731675,"source":"CELESTRAK","updated_at":"2026-05-25T13:38:21.926287Z"}}